User: anonymous   Login
Location: Alfortville
(48.8058°N, 2.4204°E)
Time: 10:49:29
(UTC+00:00)
Language:

IRS-1C Rocket - Orbit

View from above orbital plane
View from above orbital plane
View from above satellite
View from above satellite

Ground track
Ground track

The orbit data is extracted from the following two-line orbital elements,

1 23753U 95072C   22021.84835256 -.00000035  00000-0  46254-5 0  9996
2 23753  98.9262  60.1693 0004649  82.2379 277.9328 14.26606458356719
Epoch (UTC): 21 January 2022 20:21:37
Eccentricity: 0.0004649
inclination: 98.9262°
perigee height: 800 km
apogee height: 806 km
right ascension of ascending node: 60.1693°
argument of perigee: 82.2379°
revolutions per day: 14.26606458
mean anomaly at epoch: 277.9328°
orbit number at epoch: 35671

The dashed part of the orbit path shows where the satellite is in the earth's shadow,  

DLR